433 Eros (A898 PA) |
Classification: Amor [NEO] SPK-ID: 2000433 |
[ show orbit diagram ]
Orbital Elements at Epoch 2459000.5 (2020-May-31.0) TDB
Reference: JPL 658 (heliocentric ecliptic J2000)
Element | Value | Uncertainty (1-sigma) | Units |
e | .2229512647434284 | 9.6497e-09 | |
a | 1.458045729081037 | 2.1374e-10 | au |
q | 1.132972589728666 | 1.4063e-08 | au |
i | 10.83054121829922 | 1.1645e-06 | deg |
node | 304.2993259000444 | 3.8525e-06 | deg |
peri | 178.8822959227224 | 4.088e-06 | deg |
M | 271.0717325705167 | 1.4389e-06 | deg |
tp | 2459159.351922368362 (2020-Nov-05.85192237) | 2.5792e-06 | TDB |
period | 643.0654021001488 1.76 | 1.414e-07 3.871e-10 | d yr |
n | .5598186418120109 | 1.231e-10 | deg/d |
Q | 1.783118868433408 | 2.6139e-10 | au |
|
| | Orbit Determination Parameters
Additional Information
|
[ hide covariance matrix ]
Orbital Elements at Epoch 2453423.5 (2005-Feb-22.0) TDB
Reference: JPL 658 (heliocentric ecliptic J2000)
Element | Value | Uncertainty (1-sigma) | Units |
e | .2227729281440329 | 9.6566e-09 | |
q | 1.133345007188457 | 1.4054e-08 | au |
tp | 2453371.594500307263 (2005-Jan-01.09450031) | 2.545e-06 | TDB |
node | 304.3999408251687 | 3.8522e-06 | deg |
peri | 178.674249354197 | 4.0876e-06 | deg |
i | 10.82918421626726 | 1.1642e-06 | deg |
|
| | Orbit Determination Parameters
Additional Information
|
Orbit Covariance (6×6)
|
|
e |
q |
tp |
node |
peri |
i |
e |
9.324899967088822E-17 |
-1.357056961243692E-16 |
-1.117512586402795E-14 |
6.627279215684603E-15 |
-9.292398829694464E-15 |
2.087248125265158E-15 |
q |
-1.357056961243692E-16 |
1.975211218186798E-16 |
1.616773774487792E-14 |
-9.692041088123332E-15 |
1.35679891282287E-14 |
-3.052674025852226E-15 |
tp |
-1.117512586402795E-14 |
1.616773774487792E-14 |
6.476870555089975E-12 |
-4.36722126256584E-13 |
4.526618229624027E-12 |
2.70661511970483E-13 |
node |
6.627279215684603E-15 |
-9.692041088123332E-15 |
-4.36722126256584E-13 |
1.48394142683891E-11 |
-1.408030599548003E-11 |
1.615313302367723E-12 |
peri |
-9.292398829694464E-15 |
1.35679891282287E-14 |
4.526618229624027E-12 |
-1.408030599548003E-11 |
1.67084238823162E-11 |
-1.139350715953505E-12 |
i |
2.087248125265158E-15 |
-3.052674025852226E-15 |
2.70661511970483E-13 |
1.615313302367723E-12 |
-1.139350715953505E-12 |
1.355455291665097E-12 |
|
Physical Parameter Table
Parameter |
Symbol |
Value |
Units |
Sigma |
Reference |
Notes |
absolute magnitude |
H |
10.4 |
|
n/a |
MPO492754 |
|
magnitude slope |
G |
0.46 |
|
n/a |
PDS3 (MPC 17258) |
Fit |
diameter |
diameter |
16.84 |
km |
0.06 |
Yeomans et al. (2000) Science v.289,pp.2085-2088 |
sphere having the measured volume of 2503 +/- 25 km^3 |
extent |
extent |
34.4x11.2x11.2 |
km |
n/a |
Veverka et al. (2000) Science v.289,pp.2088-2097 |
|
GM |
GM |
4.463e-04 |
km^3/s^2 |
0.001e-04 |
Yeomans et al. (2000) Science v.289,pp.2085-2088 |
|
bulk density |
density |
2.67 |
g/cm^3 |
0.03 |
Yeomans et al. (2000) Science v.289,pp.2085-2088 |
based on a volume of 2503 +/- 25 km^3. Porosity 10-30%. |
rotation period |
rot_per |
5.270 |
h |
n/a |
LCDB (Rev. 2020-October); Warner et al., 2009 |
Published Reference List: [Campa, M. (1938) Mem. Soc. Astron. Ital. 11, 285-301.] [Beyer, M. (1953) Astron. Nachr. 281, 121-130.] [Cailliate, C. (1956) Publ. Observ. Lyon 3, fasc. 28.] [Cristescu, C. (1976) Icarus 28, 39-42.] [Dunlap, J.L. (1976) Icarus 28, 69-78.] [Millis, R.L.; Bowell, E.; Thompson, D.T. (1976) Icarus 28, 53-67.] [Scaltriti, F.; Zappala, V. (1976) Icarus 28, 29-35.] [Taylor, R.C. (1985) Icarus 61, 3, 490-496.] [Hicks, M.; Buratti, B.J.; Rabinowitz, D.L.; Genevier, G. (1999) Icarus 141, 411-414.] [Yeomans, D.K.; Antreasian, P.G.; Bariiot, J.-P.; Chesley, S.R.; et al. (2000) Science 289, 2085-2087.] [Kaasalainen, M.; Torppa, J.; Muinonen, K. (2001) Icarus 153, 37-51.] [Miller, J.K.; Konopliv, A.S.; Antreasian, P.G.; Bordi, J.J.; et al. (2002) Icarus 155, 3-17.] [Wolters, S.D.; Green, S.F.; McBride, N.; Davies, J.K. (2008) Icarus 193, 535-552.] [Behrend, R. (2009) Observatoire de Geneve web site, http://obswww.unige.ch/~behrend/page_cou.html] [Koehn, B.W.; Bowell, E.L.G.; Skiff, B.A.; Sanborn, J.J.; et al. (2014) Minor Planet Bull. 41, 286-300.] [Warner, B.D. (2017) Minor Planet Bull. 44, 22-36.] [Aznar, A.M.; Predatu, M.; Vaduvescu, O.; Oey, J. (2018) arXiv:1801.09420. Romanian J. Phys. 62, 904 (2017).] [Hasegawa, S.; Kuroda, D.; Kitazato, K.; Kasuga, T.; et al. (2018) Pub. Astron. Soc. Japan 70, A114.] [Skiff, B.A.; McLelland, K.P.; Sanborn, J.J.; Pravec, P.; Koehn, B.W. (2019) Minor Plantet Bull. 46, 238-265.] [Warner, B.D.; Stephens, R.D. (2019) Minor Planet Bull. 46, 27-40.] |
geometric albedo |
albedo |
0.25 |
|
0.06 |
Veverka et al. (2000) Science v.289,pp.2088-2097 |
average |
B-V |
BV |
0.921 |
|
0.021 |
EAR-A-5-DDR-UBV-MEAN-VALUES-V1.2 |
#obs=48; phase (min.=8.73, mean=34.88, max.=57.19) deg. |
U-B |
UB |
0.531 |
|
0.027 |
EAR-A-5-DDR-UBV-MEAN-VALUES-V1.2 |
#obs=45; phase (min.=7.37, mean=34.55, max.=57.19) deg. |
Tholen spectral type |
spec_T |
S |
|
n/a |
EAR-A-5-DDR-TAXONOMY-V4.0 |
used 7 color indices; used ground-based radiometric albedo |
SMASSII spectral type |
spec_B |
S |
|
n/a |
EAR-A-5-DDR-TAXONOMY-V4.0 |
based on a high-resolution spectrum by Xu et al. (1995) or Bus and Binzel (2002) |
|
433 Eros (A898 PA) Discovered 1898-Aug-13 by Witt, G. at Berlin |
Independent discovery earlier the same night by A. Charlois, Nice. |
Reference: DISCOVERY.DB | Last Updated: 2003-08-29 |
|
[ hide close-approach data ]
Close-Approach Data ...sorted by Date/Time (TDB)
|
Date/Time (TDB) |
Time Uncertainty (days_HH:MM) |
Body |
Nominal Distance (au) |
Minimum Distance (au) |
Maximum Distance (au) |
V-relative (km/s) |
V-infinity (km/s) |
JD (TDB) |
Time Uncertainty (minutes) |
Semi-major axis (km) |
Semi-minor axis (km) |
range-LOV angle (deg) |
N-sigma |
BP |
Orbit Ref. |
Reference |
Modified |
1900-Dec-27 01:30 |
< 00:01 |
Earth |
0.314929109243598 |
0.314928770649129 |
0.314929447838084 |
5.57862036137798 |
5.57710354925841 |
2415380.562349830 |
0.135424499972149 |
17.360268950775 |
6.57550461958809 |
14.4055536761747 |
5755693.05848185 |
T |
658 |
CATAB v2.0f-lin.ifort 2020-Sep-06 18:32:50 |
2020-Sep-06 18:32 |
1907-Nov-05 03:31 |
< 00:01 |
Earth |
0.471485514358231 |
0.471485325584323 |
0.471485703132621 |
4.39449034015508 |
4.39320416816541 |
2417884.646256504 |
0.0774204750538004 |
27.3370746675055 |
3.51124637231467 |
71.2365965757346 |
8723116.58678452 |
T |
658 |
CATAB v2.0f-lin.ifort 2020-Sep-06 18:32:50 |
2020-Sep-06 18:32 |
1917-Apr-20 21:19 |
< 00:01 |
Earth |
0.49925722905735 |
0.499257057462409 |
0.499257400652291 |
4.81678458316768 |
4.81567647864278 |
2421339.388447603 |
0.0674117916006762 |
8.83423151735502 |
3.55891638521515 |
16.0239887619778 |
3125190.71634423 |
T |
658 |
CATAB v2.0f-lin.ifort 2020-Sep-06 18:32:50 |
2020-Sep-06 18:32 |
1924-Mar-05 22:13 |
< 00:01 |
Earth |
0.359786524795732 |
0.35978626105059 |
0.359786788541489 |
4.5960536046792 |
4.59444199997209 |
2423850.425661077 |
0.129913537960191 |
29.5338194452139 |
6.30122460047959 |
-66.3720805707601 |
7812549.7506531 |
T |
658 |
CATAB v2.0f-lin.ifort 2020-Sep-06 18:32:50 |
2020-Sep-06 18:32 |
1931-Jan-30 04:07 |
< 00:01 |
Earth |
0.174073164088667 |
0.174072995458928 |
0.174073332722859 |
5.92081851998368 |
5.91823272773978 |
2426371.671253121 |
0.0324865350686627 |
45.9153116650481 |
1.92918878342714 |
79.7235822387634 |
10298347.3241355 |
T |
658 |
CATAB v2.0f-lin.ifort 2020-Sep-06 18:32:50 |
2020-Sep-06 18:32 |
1938-Jan-13 22:04 |
< 00:01 |
Earth |
0.215005213533752 |
0.215004986486131 |
0.215005440581531 |
6.08405229549247 |
6.08201505103375 |
2428912.419574616 |
0.0445091598396473 |
14.9262086025058 |
3.68533581091806 |
-42.2604842939197 |
5931113.46075419 |
T |
658 |
CATAB v2.0f-lin.ifort 2020-Sep-06 18:32:50 |
2020-Sep-06 18:32 |
1944-Nov-27 01:41 |
< 00:01 |
Earth |
0.403009041304271 |
0.403008868867902 |
0.403009213743549 |
3.62609871625652 |
3.62427495841226 |
2431421.569966603 |
0.0890548763451339 |
60.7473739996003 |
3.76440225130684 |
82.6684430219883 |
8376873.25310103 |
T |
658 |
CATAB v2.0f-lin.ifort 2020-Sep-06 18:32:50 |
2020-Sep-06 18:32 |
1961-Apr-04 09:08 |
< 00:01 |
Earth |
0.442492140845203 |
0.442492013347152 |
0.442492268343254 |
3.70783654975265 |
3.70621219324034 |
2437393.880415106 |
0.0578242053376022 |
6.43121046268645 |
5.17821516742053 |
-15.4478812563931 |
4762219.79106402 |
T |
658 |
CATAB v2.0f-lin.ifort 2020-Sep-06 18:32:50 |
2020-Sep-06 18:32 |
1968-Feb-11 13:46 |
< 00:01 |
Earth |
0.266271422628038 |
0.266271277186977 |
0.26627156806922 |
6.06688484889726 |
6.06523523960888 |
2439898.073440912 |
0.0349851901400009 |
14.1226756621548 |
4.92986059468596 |
66.2993577017154 |
7736103.2884024 |
T |
658 |
CATAB v2.0f-lin.ifort 2020-Sep-06 18:32:50 |
2020-Sep-06 18:32 |
1975-Jan-23 07:39 |
< 00:01 |
Earth |
0.151134183386476 |
0.151134128302004 |
0.151134238471009 |
5.82530760111607 |
5.8222803834518 |
2442435.819063704 |
0.0170019414035572 |
9.69732718939723 |
2.35482210622249 |
-81.3478088302564 |
8330946.91814913 |
T |
658 |
CATAB v2.0f-lin.ifort 2020-Sep-06 18:32:50 |
2020-Sep-06 18:32 |
1981-Dec-29 08:05 |
< 00:01 |
Earth |
0.30848931641907 |
0.308489217747118 |
0.308489415091023 |
5.66527178297612 |
5.66374699335327 |
2444967.836517259 |
0.048575747512576 |
6.69026837169411 |
4.56436943721395 |
67.8656023792392 |
7258220.56886189 |
T |
658 |
CATAB v2.0f-lin.ifort 2020-Sep-06 18:32:50 |
2020-Sep-06 18:32 |
1988-Nov-06 14:56 |
< 00:01 |
Earth |
0.4676402046904 |
0.467640149078182 |
0.467640260302618 |
4.30590191789382 |
4.30457848133339 |
2447472.122257274 |
0.0200530937507188 |
9.20493240883671 |
2.73015692503475 |
86.909089841505 |
12326611.9970138 |
T |
658 |
CATAB v2.0f-lin.ifort 2020-Sep-06 18:32:50 |
2020-Sep-06 18:32 |
2005-Mar-08 22:07 |
< 00:01 |
Earth |
0.365567230387813 |
0.365567167184262 |
0.365567293591385 |
4.41229243534752 |
4.41064023720793 |
2453438.421527291 |
0.0297023106197101 |
